• In Hungary
  • List of Countries
  • For 7 days
  • Water Temperature
  • Satellite Maps
  • Weather Map
  • News
  • Weather Widgets
  • user-avatar
    Login

    Hourly Weather Kazanovka

    Today, 24 September, Monday

    Time Temperature Precipitation Wind Pressure Humidity
    00:00 +7°C° 0 mm 4 mps 741 mmHg 87%
    01:00 +8°C° 0 mm 3 mps 741 mmHg 89%
    02:00 +8°C° 0 mm 3 mps 741 mmHg 90%
    03:00 +7°C° 0 mm 3 mps 741 mmHg 91%
    04:00 +7°C° 0 mm 3 mps 741 mmHg 92%
    05:00 +7°C° 0 mm 3 mps 741 mmHg 92%
    06:00 +7°C° 0 mm 3 mps 741 mmHg 93%
    07:00 +8°C° 0 mm 3 mps 741 mmHg 88%
    08:00 +9°C° 0 mm 3 mps 741 mmHg 83%
    09:00 +10°C° 0 mm 4 mps 741 mmHg 78%
    10:00 +10°C° 0 mm 5 mps 741 mmHg 73%
    11:00 +12°C° 0 mm 5 mps 741 mmHg 68%
    12:00 +13°C° 0 mm 6 mps 740 mmHg 63%
    13:00 +13°C° 0.1 mm 6 mps 740 mmHg 63%
    14:00 +11°C° 0.1 mm 7 mps 739 mmHg 64%
    15:00 +11°C° 0.1 mm 7 mps 738 mmHg 65%
    16:00 +10°C° 1.3 mm 8 mps 738 mmHg 71%
    17:00 +10°C° 1.3 mm 8 mps 737 mmHg 77%
    18:00 +9°C° 1.3 mm 8 mps 736 mmHg 83%
    19:00 +8°C° 1.5 mm 9 mps 735 mmHg 84%
    20:00 +10°C° 1.5 mm 9 mps 734 mmHg 86%
    21:00 +10°C° 1.5 mm 9 mps 734 mmHg 87%
    22:00 +10°C° 0.4 mm 9 mps 733 mmHg 87%
    23:00 +10°C° 0.4 mm 8 mps 733 mmHg 86%

    Tomorrow, 25 September, Tuesday

    Time Temperature Precipitation Wind Pressure Humidity
    00:00 +10°C° 0.4 mm 8 mps 732 mmHg 86%
    01:00 +9°C° 0.1 mm 7 mps 732 mmHg 86%
    02:00 +8°C° 0.1 mm 7 mps 732 mmHg 86%
    03:00 +8°C° 0.1 mm 6 mps 732 mmHg 85%
    04:00 +7°C° 0 mm 6 mps 732 mmHg 85%
    05:00 +7°C° 0 mm 6 mps 733 mmHg 84%
    06:00 +7°C° 0 mm 6 mps 733 mmHg 84%
    07:00 +7°C° 0 mm 6 mps 733 mmHg 83%
    08:00 +6°C° 0 mm 7 mps 733 mmHg 82%
    09:00 +8°C° 0 mm 7 mps 734 mmHg 81%
    10:00 +8°C° 0.1 mm 7 mps 734 mmHg 80%
    11:00 +8°C° 0.1 mm 7 mps 735 mmHg 79%
    12:00 +8°C° 0.1 mm 7 mps 736 mmHg 78%
    13:00 +8°C° 0.1 mm 7 mps 736 mmHg 77%
    14:00 +8°C° 0.1 mm 7 mps 737 mmHg 77%
    15:00 +8°C° 0.1 mm 7 mps 737 mmHg 77%
    16:00 +6°C° 0.2 mm 7 mps 738 mmHg 78%
    17:00 +6°C° 0.2 mm 7 mps 738 mmHg 79%
    18:00 +6°C° 0.2 mm 7 mps 739 mmHg 80%
    19:00 +5°C° 0.1 mm 7 mps 739 mmHg 80%
    20:00 +5°C° 0.1 mm 7 mps 740 mmHg 81%
    21:00 +5°C° 0.1 mm 7 mps 741 mmHg 81%
    22:00 +5°C° 0.1 mm 6 mps 741 mmHg 81%
    23:00 +4°C° 0.1 mm 6 mps 742 mmHg 81%

    Day after tomorrow, 26 September, Wednesday

    Time Temperature Precipitation Wind Pressure Humidity
    00:00 +4°C° 0.1 mm 6 mps 742 mmHg 81%
    01:00 +4°C° 0 mm 6 mps 743 mmHg 81%
    02:00 +3°C° 0 mm 6 mps 744 mmHg 82%
    03:00 +3°C° 0 mm 6 mps 744 mmHg 83%
    04:00 +3°C° 0 mm 5 mps 745 mmHg 84%
    05:00 +2°C° 0 mm 5 mps 746 mmHg 85%
    06:00 +2°C° 0 mm 5 mps 746 mmHg 87%
    07:00 +2°C° 0 mm 5 mps 747 mmHg 83%
    08:00 +3°C° 0 mm 5 mps 748 mmHg 80%
    09:00 +3°C° 0 mm 6 mps 748 mmHg 76%
    10:00 +4°C° 0 mm 6 mps 749 mmHg 69%
    11:00 +6°C° 0 mm 5 mps 749 mmHg 63%
    12:00 +7°C° 0 mm 5 mps 750 mmHg 56%
    13:00 +7°C° 0 mm 5 mps 750 mmHg 53%
    14:00 +8°C° 0 mm 5 mps 750 mmHg 50%
    15:00 +8°C° 0 mm 5 mps 750 mmHg 47%
    16:00 +7°C° 0 mm 4 mps 750 mmHg 52%
    17:00 +7°C° 0 mm 3 mps 750 mmHg 56%
    18:00 +7°C° 0 mm 3 mps 750 mmHg 61%
    19:00 +5°C° 0 mm 3 mps 750 mmHg 62%
    20:00 +4°C° 0 mm 3 mps 750 mmHg 64%
    21:00 +4°C° 0 mm 3 mps 750 mmHg 65%
    22:00 +4°C° 0 mm 4 mps 749 mmHg 65%
    23:00 +3°C° 0 mm 5 mps 749 mmHg 64%

    27 September, Thursday

    Time Temperature Precipitation Wind Pressure Humidity
    00:00 +3°C° 0 mm 5 mps 748 mmHg 64%
    01:00 +3°C° 0 mm 6 mps 747 mmHg 65%
    02:00 +3°C° 0 mm 6 mps 747 mmHg 66%
    03:00 +4°C° 0 mm 7 mps 746 mmHg 68%
    04:00 +4°C° 0.3 mm 7 mps 745 mmHg 69%
    05:00 +4°C° 0.3 mm 8 mps 744 mmHg 71%
    06:00 +4°C° 0.3 mm 8 mps 744 mmHg 72%
    07:00 +3°C° 1 mm 9 mps 743 mmHg 75%
    08:00 +3°C° 1 mm 9 mps 742 mmHg 77%
    09:00 +3°C° 1 mm 10 mps 742 mmHg 79%
    10:00 +3°C° 0.6 mm 9 mps 741 mmHg 80%
    11:00 +5°C° 0.6 mm 9 mps 741 mmHg 82%
    12:00 +5°C° 0.6 mm 9 mps 741 mmHg 83%
    13:00 +6°C° 0.1 mm 8 mps 741 mmHg 83%
    14:00 +6°C° 0.1 mm 8 mps 741 mmHg 82%
    15:00 +7°C° 0.1 mm 8 mps 741 mmHg 81%
    16:00 +8°C° 0.1 mm 7 mps 741 mmHg 83%
    17:00 +7°C° 0.1 mm 6 mps 741 mmHg 84%
    18:00 +7°C° 0.1 mm 6 mps 741 mmHg 86%
    19:00 +7°C° 0.1 mm 6 mps 741 mmHg 87%
    20:00 +7°C° 0.1 mm 6 mps 741 mmHg 89%
    21:00 +7°C° 0.1 mm 5 mps 741 mmHg 91%
    22:00 +7°C° 0 mm 5 mps 741 mmHg 91%
    23:00 +7°C° 0 mm 5 mps 741 mmHg 91%

    28 September, Friday

    Time Temperature Precipitation Wind Pressure Humidity
    00:00 +8°C° 0 mm 5 mps 741 mmHg 91%
    01:00 +8°C° 0.1 mm 5 mps 740 mmHg 91%
    02:00 +8°C° 0.1 mm 5 mps 740 mmHg 92%
    03:00 +8°C° 0.1 mm 6 mps 739 mmHg 92%
    04:00 +9°C° 0.1 mm 6 mps 739 mmHg 91%
    05:00 +10°C° 0.1 mm 7 mps 738 mmHg 90%
    06:00 +11°C° 0.1 mm 8 mps 738 mmHg 89%
    07:00 +11°C° 0 mm 9 mps 737 mmHg 87%
    08:00 +11°C° 0 mm 9 mps 737 mmHg 85%
    09:00 +12°C° 0 mm 10 mps 736 mmHg 83%
    10:00 +12°C° 0.1 mm 10 mps 736 mmHg 83%
    11:00 +12°C° 0.1 mm 10 mps 736 mmHg 83%
    12:00 +12°C° 0.1 mm 10 mps 736 mmHg 83%
    13:00 +12°C° 0.3 mm 10 mps 736 mmHg 83%
    14:00 +12°C° 0.3 mm 9 mps 737 mmHg 83%
    15:00 +12°C° 0.3 mm 9 mps 737 mmHg 83%
    16:00 +11°C° 0.1 mm 7 mps 738 mmHg 81%
    17:00 +10°C° 0.1 mm 6 mps 739 mmHg 79%
    18:00 +10°C° 0.1 mm 4 mps 740 mmHg 78%
    19:00 +8°C° 0 mm 4 mps 740 mmHg 80%
    20:00 +8°C° 0 mm 3 mps 741 mmHg 83%
    21:00 +8°C° 0 mm 3 mps 742 mmHg 86%
    22:00 +7°C° 0 mm 3 mps 742 mmHg 87%
    23:00 +7°C° 0 mm 3 mps 743 mmHg 88%

    29 September, Saturday

    Time Temperature Precipitation Wind Pressure Humidity
    00:00 +7°C° 0 mm 3 mps 743 mmHg 89%
    01:00 +5°C° 0 mm 3 mps 744 mmHg 90%
    02:00 +5°C° 0 mm 3 mps 744 mmHg 91%
    03:00 +4°C° 0 mm 3 mps 744 mmHg 92%
    04:00 +5°C° 0 mm 2 mps 745 mmHg 92%
    05:00 +5°C° 0 mm 2 mps 745 mmHg 93%
    06:00 +4°C° 0 mm 2 mps 746 mmHg 93%
    07:00 +5°C° 0 mm 2 mps 746 mmHg 88%
    08:00 +6°C° 0 mm 2 mps 746 mmHg 83%
    09:00 +7°C° 0 mm 3 mps 747 mmHg 79%
    10:00 +8°C° 0 mm 3 mps 747 mmHg 71%
    11:00 +9°C° 0 mm 3 mps 747 mmHg 63%
    12:00 +10°C° 0 mm 3 mps 747 mmHg 55%
    13:00 +10°C° 0 mm 3 mps 747 mmHg 53%
    14:00 +10°C° 0 mm 3 mps 748 mmHg 50%
    15:00 +10°C° 0 mm 3 mps 748 mmHg 48%
    16:00 +10°C° 0 mm 3 mps 748 mmHg 51%
    17:00 +9°C° 0 mm 2 mps 748 mmHg 55%
    18:00 +8°C° 0 mm 2 mps 748 mmHg 59%
    19:00 +8°C° 0 mm 2 mps 749 mmHg 60%
    20:00 +7°C° 0 mm 2 mps 750 mmHg 62%
    21:00 +6°C° 0 mm 2 mps 750 mmHg 63%
    22:00 +6°C° 0 mm 2 mps 750 mmHg 65%
    23:00 +5°C° 0 mm 2 mps 751 mmHg 67%
    Show more